Cloud_Cover
100 100 100 77 62 100 69 100 100 72 99 66 100 29 23 98 100 100 100 100 100 100 100 100 100 100 100 100 100 100 81 44 23 8 4 3 5 5 5 5 5 5 5
100 100 100 100 88 100 100 100 100 52 37 100 100 99 55 46 80 100 95 61 100 70 100 100 100 100 100 100 100 46 8 5 5 18 5 5 5 5 16 5 5 5 2
100 100 88 84 100 100 100 100 100 100 100 100 85 43 7 50 31 83 100 100 98 100 100 100 100 100 100 100 85 39 22 38 21 12 20 25 11 10 5 5 3 0 1
100 100 100 98 76 100 100 100 49 100 100 100 100 41 5 72 52 36 99 93 100 100 99 100 99 95 100 100 90 96 90 54 38 8 6 5 5 5 5 4 1 0 0
100 100 100 100 100 100 98 95 100 100 100 100 100 99 98 91 98 96 61 36 100 100 99 85 8 62 79 35 26 32 48 16 6 72 100 82 93 61 5 2 4 1 9
100 100 100 100 100 100 100 100 100 100 100 100 100 100 100 100 100 100 100 73 99 95 86 55 5 43 80 70 79 83 85 98 100 100 100 98 100 41 5 4 45 27 100
100 100 100 100 100 100 100 100 100 100 100 100 100 100 100 100 100 100 100 100 100 97 32 6 100 100 100 100 100 100 100 100 100 100 100 100 100 90 85 10 51 93 100
99 100 100 100 100 100 100 100 100 100 100 100 100 100 100 100 100 100 100 100 100 100 100 100 100 100 100 100 100 100 100 100 100 100 100 100 100 100 100 100 99 53 100
100 100 100 100 100 100 100 100 100 100 100 100 100 100 100 100 100 100 100 100 100 100 100 100 100 100 100 100 100 100 100 100 100 76 100 100 79 65 100 92 23 100 93
100 99 100 100 100 100 100 100 100 100 100 100 100 100 100 99 100 100 100 100 100 100 97 81 73 100 100 100 95 100 100 100 100 100 100 100 12 63 38 5 35 8 52
100 100 100 100 100 100 100 100 100 100 100 100 100 100 100 100 100 100 100 100 100 100 100 100 99 95 100 99 100 100 100 100 100 98 86 100 100 80 77 34 50 88 100
100 100 100 100 100 91 100 100 100 100 100 100 100 100 100 100 100 100 100 100 100 100 100 100 100 100 100 100 100 100 100 84 100 100 99 86 34 24 5 62 22 61 89
100 100 100 100 100 82 83 100 100 100 100 100 100 100 100 100 100 100 100 100 100 96 100 100 89 100 87 82 100 100 100 100 100 100 97 51 74 98 100 90 84 11 64
100 100 100 100 100 100 81 100 100 100 100 100 100 100 100 100 100 100 100 99 100 76 100 100 96 100 91 95 93 100 100 100 100 100 99 66 50 100 100 97 67 43 16
95 100 100 100 100 100 100 100 100 100 100 100 100 100 100 100 100 100 100 100 99 100 100 100 100 100 90 100 100 100 100 100 100 97 64 100 90 98 92 6 89 95 33
100 100 100 92 64 100 100 100 100 100 100 100 100 100 100 100 100 100 100 100 100 100 100 100 100 100 100 100 100 99 100 100 100 40 89 100 100 71 95 99 91 60 98
100 100 100 94 99 100 100 100 100 100 100 100 100 100 100 100 100 100 100 100 100 100 100 100 100 100 100 100 100 100 100 100 100 100 100 100 100 98 84 91 100 100 100
100 100 99 100 100 100 100 100 100 100 100 100 100 100 100 100 100 100 100 100 100 100 100 100 100 100 100 100 100 100 100 100 100 100 100 100 100 100 100 100 100 95 98
100 100 100 100 100 100 100 100 100 100 100 100 100 100 100 68 100 100 100 100 100 100 100 100 100 100 100 100 100 100 100 100 100 100 100 100 100 100 100 100 100 100 88
100 100 100 100 100 100 100 100 100 100 100 100 100 100 100 91 100 100 100 100 100 100 100 100 100 100 100 100 100 100 100 100 100 100 100 100 100 100 100 97 46 18 8
100 100 100 100 100 100 100 100 100 100 100 100 100 100 97 100 100 100 100 100 100 100 100 100 100 100 100 100 100 100 100 100 100 100 100 100 100 66 15 5 5 11 87
100 100 100 100 100 100 100 100 100 100 100 100 100 100 100 100 98 100 100 100 100 100 100 100 100 100 100 100 100 100 100 100 100 100 53 43 52 24 67 5 5 42 79
100 100 100 100 100 100 100 100 100 100 100 100 100 100 100 100 100 100 100 100 100 100 100 100 100 94 100 100 100 100 99 100 85 92 100 99 88 8 5 5 5 5 39
100 100 100 100 100 100 100 100 100 100 100 100 100 100 100 100 100 100 100 100 100 100 100 100 100 100 100 100 100 100 100 95 98 75 83 76 58 16 14 5 0 4 5
100 100 100 100 100 100 100 100 100 100 100 100 100 100 100 100 100 100 100 100 100 100 100 100 100 100 99 100 100 100 100 100 98 98 76 74 59 18 7 4 0 0 5
100 100 100 100 100 100 100 100 100 100 100 100 100 100 100 100 100 100 100 100 100 100 100 100 100 100 100 100 100 100 100 100 100 100 60 93 27 54 12 2 3 0 1